Location: Sternwarte_Laufen
(47.9344°N, 12.9346°E)
Time: 08:16:39
(UTC+02:00)

ISS - Pass Details

Date: 24 May 2018
Orbit: 402 x 407 km, 51.6° (Epoch: 26 May)

Event Time Altitude Azimuth Distance (km) Brightness Sun altitude
Rises 01:20:23 0° 290° (WNW) 2,321 0.2 -21.3°
Reaches altitude 10° 01:22:30 10° 295° (WNW) 1,460 -0.8 -21.2°
Maximum altitude 01:25:42 52° 13° (NNE) 507 -3.1 -21.2°
Enters shadow 01:27:53 18° 86° (E) 1,061 -1.6 -21.2°
